Regional Weather Roundup
Issued by NWS Cleveland, OH

Home | Current Version | Previous Version | Graphics & Text | Print | Product List | Glossary On
Versions: 1 2 3 4 5 6 7 8 9 10 11 12 13 14 15 16 17 18 19 20 21 22 23 24 25 26 27 28 29 30 31 32 33 34 35 36 37 38 39 40 41 42 43 44 45 46 47 48 49 50
000
ASUS41 KCLE 311502
RWRCLE
OHIO REGIONAL WEATHER ROUNDUP
NATIONAL WEATHER SERVICE CLEVELAND, OH
1100 AM EDT FRI JUL 31 2015

NOTE: "FAIR" INDICATES FEW OR NO CLOUDS BELOW 12,000 FEET WITH NO
SIGNIFICANT WEATHER AND/OR OBSTRUCTIONS TO VISIBILITY.

OHZ001>008-015>018-024>027-034-035-043-044-311600-
   NORTHWEST OHIO

CITY           SKY/WX    TMP DP  RH WIND       PRES   REMARKS
DEFIANCE       SUNNY     82  61  48 SW7       30.00F
FINDLAY        SUNNY     79  65  62 W10       30.00F
TOLEDO EXPRESS SUNNY     79  61  53 W9        29.97F
TOLEDO EXEC    SUNNY     81  60  48 W9        29.98F
LIMA           SUNNY     78  62  57 W7        30.03S
$$

OHZ009>014-019>023-028>033-038-089-311600-
   NORTHEAST OHIO

CITY           SKY/WX    TMP DP  RH WIND       PRES   REMARKS
CLE-HOPKINS    SUNNY     82  60  47 W8        29.99S
CLE-LAKEFRONT  SUNNY     79  62  56 W10       29.95S
CUY CO. ARPT   SUNNY     79  63  57 W12       29.97F
LORAIN-ELYRIA  SUNNY     78  61  55 W6        29.98S
ASHTABULA      SUNNY     80  65  59 W8        29.96F
AKRON-CANTON   SUNNY     81  60  48 W8        29.99F
WOOSTER        SUNNY     79  63  57 W5        30.00F
MANSFIELD      SUNNY     79  61  53 SW10      30.01F
YOUNGSTOWN     SUNNY     79  59  50 W8        29.98F
$$

OHZ042-051>053-060>062-070>072-077>081-311600-
  SOUTHWEST OHIO

CITY           SKY/WX    TMP DP  RH WIND       PRES   REMARKS
CINC-COVINGTON SUNNY     80  66  62 W6        30.07S
CINC-LUNKEN    SUNNY     80  66  62 VRB3      30.05F
HAMILTON       SUNNY     80  66  62 NW6       30.06F
DAYTON         SUNNY     78  66  66 W9        30.06S
WRIGHT-PAT AFB NOT AVBL
DAYTON GENERAL SUNNY     78  64  61 W7        30.05F
WILMINGTON     SUNNY     79  64  60 W6        30.05F
$$

OHZ036-037-039>041-045>050-054>059-063>069-073>076-082>088-311600-
  CENTRAL AND SOUTHEAST OHIO

CITY           SKY/WX    TMP DP  RH WIND       PRES   REMARKS
COLUMBUS       SUNNY     80  63  55 VRB6      30.01F
OSU AIRPORT    SUNNY     79  66  64 W8        30.02F
BOLTON FIELD   SUNNY     79  66  65 W6        30.03F
RICKENBACK AFB SUNNY     77  67  71 SW5       30.02F
NEWARK         SUNNY     81  62  52 SW6       30.01F
MARION         SUNNY     79  62  56 NW8       30.02S
LANCASTER      SUNNY     79  65  62 SW6       30.03F
ZANESVILLE     SUNNY     79  61  53 W6        30.02F
NEW PHILLY     SUNNY     78  63  59 W3        30.01F
$$


USA.gov is the U.S. government's official web portal to all federal, state and local government web resources and services.